Location: Newark
(55.7083°N, 13.1992°E)
Time: 14:05:57
(UTC+00:00)

Transit 4A - Pass Details

Date: 27 February 2020
Orbit: 871 x 973 km, 66.8° (Epoch: 06 April)

Event Time Altitude Azimuth Distance (km) Brightness Sun altitude
Exits shadow 04:14:31 - 314° (NW) 2,705 10.0 -16.3°
Reaches altitude 10° 04:15:02 10° 317° (NW) 2,531 9.9 -16.2°
Maximum altitude 04:20:25 37° 24° (NNE) 1,340 9.0 -15.4°
Drops below altitude 10° 04:25:51 10° 91° (E) 2,547 11.6 -14.7°
Sets 04:28:33 0° 100° (E) 3,496 12.5 -14.3°
